owner,sensor,date,latitude,longitude,vertical_datum,sea_water_practical_salinity,qcFlag 
TABS,ioos:station:wmo:42051:1,2013-11-01T00:00:00Z,29.6350,-93.6417,2.0,25.7117,11111222 
TABS,ioos:station:wmo:42051:1,2013-11-01T00:30:00Z,29.6350,-93.6417,2.0,25.6486,11111222 
TABS,ioos:station:wmo:42051:1,2013-11-01T01:00:00Z,29.6350,-93.6417,2.0,24.9257,11111222 
TABS,ioos:station:wmo:42051:1,2013-11-01T01:30:00Z,29.6350,-93.6417,2.0,25.1234,11111222 
TABS,ioos:station:wmo:42051:1,2013-11-01T02:00:00Z,29.6350,-93.6417,2.0,25.316,11111222 
TABS,ioos:station:wmo:42051:1,2013-11-01T02:30:00Z,29.6350,-93.6417,2.0,25.3542,11111222 
TABS,ioos:station:wmo:42051:1,2013-11-01T03:00:00Z,29.6350,-93.6417,2.0,26.1241,11111222 
TABS,ioos:station:wmo:42051:1,2013-11-01T03:30:00Z,29.6350,-93.6417,2.0,26.3419,11111222 
TABS,ioos:station:wmo:42051:1,2013-11-01T04:00:00Z,29.6350,-93.6417,2.0,26.4278,11111222 
TABS,ioos:station:wmo:42051:1,2013-11-01T04:30:00Z,29.6350,-93.6417,2.0,26.5385,11111222 
TABS,ioos:station:wmo:42051:1,2013-11-01T05:00:00Z,29.6350,-93.6417,2.0,26.7835,11111222 
TABS,ioos:station:wmo:42051:1,2013-11-01T05:30:00Z,29.6350,-93.6417,2.0,26.9687,11111222 
TABS,ioos:station:wmo:42051:1,2013-11-01T06:00:00Z,29.6350,-93.6417,2.0,27.0946,11111222 
TABS,ioos:station:wmo:42051:1,2013-11-01T06:30:00Z,29.6350,-93.6417,2.0,27.1744,11111222 
TABS,ioos:station:wmo:42051:1,2013-11-01T07:00:00Z,29.6350,-93.6417,2.0,27.1994,11111222 
TABS,ioos:station:wmo:42051:1,2013-11-01T07:30:00Z,29.6350,-93.6417,2.0,27.1133,11111222 
TABS,ioos:station:wmo:42051:1,2013-11-01T08:00:00Z,29.6350,-93.6417,2.0,27.1726,11111222 
TABS,ioos:station:wmo:42051:1,2013-11-01T08:30:00Z,29.6350,-93.6417,2.0,27.1827,11111222 
TABS,ioos:station:wmo:42051:1,2013-11-01T09:00:00Z,29.6350,-93.6417,2.0,27.1899,11111222 
TABS,ioos:station:wmo:42051:1,2013-11-01T09:30:00Z,29.6350,-93.6417,2.0,27.1486,11111222 
TABS,ioos:station:wmo:42051:1,2013-11-01T10:00:00Z,29.6350,-93.6417,2.0,27.1349,11111222 
TABS,ioos:station:wmo:42051:1,2013-11-01T10:30:00Z,29.6350,-93.6417,2.0,27.0734,11111222 
TABS,ioos:station:wmo:42051:1,2013-11-01T11:00:00Z,29.6350,-93.6417,2.0,27.0294,11111222 
TABS,ioos:station:wmo:42051:1,2013-11-01T11:30:00Z,29.6350,-93.6417,2.0,26.9802,11111222 
TABS,ioos:station:wmo:42051:1,2013-11-01T12:00:00Z,29.6350,-93.6417,2.0,26.9581,11111222 
TABS,ioos:station:wmo:42051:1,2013-11-01T12:30:00Z,29.6350,-93.6417,2.0,26.8622,11111222 
TABS,ioos:station:wmo:42051:1,2013-11-01T13:00:00Z,29.6350,-93.6417,2.0,26.8773,11111222 
TABS,ioos:station:wmo:42051:1,2013-11-01T13:30:00Z,29.6350,-93.6417,2.0,25.0371,11111222 
TABS,ioos:station:wmo:42051:1,2013-11-01T14:00:00Z,29.6350,-93.6417,2.0,24.9632,11111222 
TABS,ioos:station:wmo:42051:1,2013-11-01T14:30:00Z,29.6350,-93.6417,2.0,24.801,11111222 
TABS,ioos:station:wmo:42051:1,2013-11-01T15:00:00Z,29.6350,-93.6417,2.0,24.9955,11111222 
TABS,ioos:station:wmo:42051:1,2013-11-01T15:30:00Z,29.6350,-93.6417,2.0,25.3765,11111222 
TABS,ioos:station:wmo:42051:1,2013-11-01T16:00:00Z,29.6350,-93.6417,2.0,25.7021,11111222 
TABS,ioos:station:wmo:42051:1,2013-11-01T16:30:00Z,29.6350,-93.6417,2.0,25.8798,11111222 
TABS,ioos:station:wmo:42051:1,2013-11-01T17:00:00Z,29.6350,-93.6417,2.0,25.9638,11111222 
TABS,ioos:station:wmo:42051:1,2013-11-01T17:30:00Z,29.6350,-93.6417,2.0,25.9518,11111222 
TABS,ioos:station:wmo:42051:1,2013-11-01T18:00:00Z,29.6350,-93.6417,2.0,25.3702,11111222 
TABS,ioos:station:wmo:42051:1,2013-11-01T18:30:00Z,29.6350,-93.6417,2.0,25.2872,11111222 
TABS,ioos:station:wmo:42051:1,2013-11-01T19:00:00Z,29.6350,-93.6417,2.0,25.4838,11111222 
TABS,ioos:station:wmo:42051:1,2013-11-01T19:30:00Z,29.6350,-93.6417,2.0,25.3851,11111222 
TABS,ioos:station:wmo:42051:1,2013-11-01T20:00:00Z,29.6350,-93.6417,2.0,25.4779,11111222 
TABS,ioos:station:wmo:42051:1,2013-11-01T20:30:00Z,29.6350,-93.6417,2.0,25.4227,11111222 
TABS,ioos:station:wmo:42051:1,2013-11-01T21:00:00Z,29.6350,-93.6417,2.0,25.4802,11111222 
TABS,ioos:station:wmo:42051:1,2013-11-01T21:30:00Z,29.6350,-93.6417,2.0,25.5005,11111222 
TABS,ioos:station:wmo:42051:1,2013-11-01T22:00:00Z,29.6350,-93.6417,2.0,25.58,11111222 
TABS,ioos:station:wmo:42051:1,2013-11-01T22:30:00Z,29.6350,-93.6417,2.0,25.6478,11111222 
TABS,ioos:station:wmo:42051:1,2013-11-01T23:00:00Z,29.6350,-93.6417,2.0,25.8173,11111222 
TABS,ioos:station:wmo:42051:1,2013-11-01T23:30:00Z,29.6350,-93.6417,2.0,25.7065,11111222 
TABS,ioos:station:wmo:42051:1,2013-11-02T00:00:00Z,29.6350,-93.6417,2.0,26.067,11111222 
TABS,ioos:station:wmo:42051:1,2013-11-02T00:30:00Z,29.6350,-93.6417,2.0,26.0498,11111222 
TABS,ioos:station:wmo:42051:1,2013-11-02T01:00:00Z,29.6350,-93.6417,2.0,26.4481,11111222 
TABS,ioos:station:wmo:42051:1,2013-11-02T01:30:00Z,29.6350,-93.6417,2.0,26.6948,11111222 
TABS,ioos:station:wmo:42051:1,2013-11-02T02:00:00Z,29.6350,-93.6417,2.0,26.8514,11111222 
TABS,ioos:station:wmo:42051:1,2013-11-02T02:30:00Z,29.6350,-93.6417,2.0,27.0064,11111222 
TABS,ioos:station:wmo:42051:1,2013-11-02T03:00:00Z,29.6350,-93.6417,2.0,27.1004,11111222 
TABS,ioos:station:wmo:42051:1,2013-11-02T03:30:00Z,29.6350,-93.6417,2.0,27.139,11111222 
TABS,ioos:station:wmo:42051:1,2013-11-02T04:00:00Z,29.6350,-93.6417,2.0,27.1815,11111222 
TABS,ioos:station:wmo:42051:1,2013-11-02T04:30:00Z,29.6350,-93.6417,2.0,27.1512,11111222 
TABS,ioos:station:wmo:42051:1,2013-11-02T05:00:00Z,29.6350,-93.6417,2.0,27.133,11111222 
TABS,ioos:station:wmo:42051:1,2013-11-02T05:30:00Z,29.6350,-93.6417,2.0,27.1348,11111222 
TABS,ioos:station:wmo:42051:1,2013-11-02T06:00:00Z,29.6350,-93.6417,2.0,27.0912,11111222 
TABS,ioos:station:wmo:42051:1,2013-11-02T06:30:00Z,29.6350,-93.6417,2.0,26.9905,11111222 
TABS,ioos:station:wmo:42051:1,2013-11-02T07:00:00Z,29.6350,-93.6417,2.0,26.8249,11111222 
TABS,ioos:station:wmo:42051:1,2013-11-02T07:30:00Z,29.6350,-93.6417,2.0,26.5555,11111222 
TABS,ioos:station:wmo:42051:1,2013-11-02T08:00:00Z,29.6350,-93.6417,2.0,26.1833,11111222 
TABS,ioos:station:wmo:42051:1,2013-11-02T08:30:00Z,29.6350,-93.6417,2.0,25.8166,11111222 
TABS,ioos:station:wmo:42051:1,2013-11-02T09:00:00Z,29.6350,-93.6417,2.0,25.7039,11111222 
TABS,ioos:station:wmo:42051:1,2013-11-02T09:30:00Z,29.6350,-93.6417,2.0,25.3976,11111222 
TABS,ioos:station:wmo:42051:1,2013-11-02T10:00:00Z,29.6350,-93.6417,2.0,25.3139,11111222 
TABS,ioos:station:wmo:42051:1,2013-11-02T10:30:00Z,29.6350,-93.6417,2.0,25.3806,11111222 
TABS,ioos:station:wmo:42051:1,2013-11-02T11:00:00Z,29.6350,-93.6417,2.0,25.3513,11111222 
TABS,ioos:station:wmo:42051:1,2013-11-02T11:30:00Z,29.6350,-93.6417,2.0,25.4313,11111222 
TABS,ioos:station:wmo:42051:1,2013-11-02T12:00:00Z,29.6350,-93.6417,2.0,25.4375,11111222 
TABS,ioos:station:wmo:42051:1,2013-11-02T12:30:00Z,29.6350,-93.6417,2.0,25.5257,11111222 
TABS,ioos:station:wmo:42051:1,2013-11-02T13:00:00Z,29.6350,-93.6417,2.0,25.4102,11111222 
TABS,ioos:station:wmo:42051:1,2013-11-02T13:30:00Z,29.6350,-93.6417,2.0,25.2765,11111222 
TABS,ioos:station:wmo:42051:1,2013-11-02T14:00:00Z,29.6350,-93.6417,2.0,25.6848,11111222 
TABS,ioos:station:wmo:42051:1,2013-11-02T14:30:00Z,29.6350,-93.6417,2.0,25.1394,11111222 
TABS,ioos:station:wmo:42051:1,2013-11-02T15:00:00Z,29.6350,-93.6417,2.0,25.8657,11111222 
TABS,ioos:station:wmo:42051:1,2013-11-02T15:30:00Z,29.6350,-93.6417,2.0,25.4211,11111222 
TABS,ioos:station:wmo:42051:1,2013-11-02T16:00:00Z,29.6350,-93.6417,2.0,25.8203,11111222 
TABS,ioos:station:wmo:42051:1,2013-11-02T16:30:00Z,29.6350,-93.6417,2.0,25.6348,11111222 
TABS,ioos:station:wmo:42051:1,2013-11-02T17:00:00Z,29.6350,-93.6417,2.0,25.6443,11111222 
TABS,ioos:station:wmo:42051:1,2013-11-02T17:30:00Z,29.6350,-93.6417,2.0,25.7991,11111222 
TABS,ioos:station:wmo:42051:1,2013-11-02T18:00:00Z,29.6350,-93.6417,2.0,25.8092,11111222 
TABS,ioos:station:wmo:42051:1,2013-11-02T18:30:00Z,29.6350,-93.6417,2.0,25.3161,11111222 
TABS,ioos:station:wmo:42051:1,2013-11-02T19:00:00Z,29.6350,-93.6417,2.0,25.745,11111222 
TABS,ioos:station:wmo:42051:1,2013-11-02T19:30:00Z,29.6350,-93.6417,2.0,25.5278,11111222 
TABS,ioos:station:wmo:42051:1,2013-11-02T20:00:00Z,29.6350,-93.6417,2.0,25.8869,11111222 
TABS,ioos:station:wmo:42051:1,2013-11-02T20:30:00Z,29.6350,-93.6417,2.0,25.4163,11111222 
TABS,ioos:station:wmo:42051:1,2013-11-02T21:00:00Z,29.6350,-93.6417,2.0,25.7442,11111222 
TABS,ioos:station:wmo:42051:1,2013-11-02T21:30:00Z,29.6350,-93.6417,2.0,25.5588,11111222 
TABS,ioos:station:wmo:42051:1,2013-11-02T22:00:00Z,29.6350,-93.6417,2.0,24.9315,11111222 
TABS,ioos:station:wmo:42051:1,2013-11-02T22:30:00Z,29.6350,-93.6417,2.0,25.2311,11111222 
TABS,ioos:station:wmo:42051:1,2013-11-02T23:00:00Z,29.6350,-93.6417,2.0,24.8853,11111222 
TABS,ioos:station:wmo:42051:1,2013-11-02T23:30:00Z,29.6350,-93.6417,2.0,24.9429,11111222 
TABS,ioos:station:wmo:42051:1,2013-11-03T00:00:00Z,29.6350,-93.6417,2.0,25.2311,11111222 
TABS,ioos:station:wmo:42051:1,2013-11-03T00:30:00Z,29.6350,-93.6417,2.0,25.5429,11111222 
TABS,ioos:station:wmo:42051:1,2013-11-03T01:00:00Z,29.6350,-93.6417,2.0,25.4429,11111222 
TABS,ioos:station:wmo:42051:1,2013-11-03T01:30:00Z,29.6350,-93.6417,2.0,25.4906,11111222 
TABS,ioos:station:wmo:42051:1,2013-11-03T02:00:00Z,29.6350,-93.6417,2.0,25.3246,11111222 
TABS,ioos:station:wmo:42051:1,2013-11-03T02:30:00Z,29.6350,-93.6417,2.0,25.4404,11111222 
TABS,ioos:station:wmo:42051:1,2013-11-03T03:00:00Z,29.6350,-93.6417,2.0,25.5973,11111222 
TABS,ioos:station:wmo:42051:1,2013-11-03T03:30:00Z,29.6350,-93.6417,2.0,25.7101,11111222 
TABS,ioos:station:wmo:42051:1,2013-11-03T04:00:00Z,29.6350,-93.6417,2.0,25.5343,11111222 
TABS,ioos:station:wmo:42051:1,2013-11-03T04:30:00Z,29.6350,-93.6417,2.0,25.7141,11111222 
TABS,ioos:station:wmo:42051:1,2013-11-03T05:00:00Z,29.6350,-93.6417,2.0,25.7885,11111222 
TABS,ioos:station:wmo:42051:1,2013-11-03T05:30:00Z,29.6350,-93.6417,2.0,25.9376,11111222 
TABS,ioos:station:wmo:42051:1,2013-11-03T06:00:00Z,29.6350,-93.6417,2.0,26.0399,11111222 
TABS,ioos:station:wmo:42051:1,2013-11-03T06:30:00Z,29.6350,-93.6417,2.0,26.1685,11111222 
TABS,ioos:station:wmo:42051:1,2013-11-03T07:00:00Z,29.6350,-93.6417,2.0,26.0114,11111222 
TABS,ioos:station:wmo:42051:1,2013-11-03T07:30:00Z,29.6350,-93.6417,2.0,26.0921,11111222 
TABS,ioos:station:wmo:42051:1,2013-11-03T08:00:00Z,29.6350,-93.6417,2.0,26.268,11111222 
TABS,ioos:station:wmo:42051:1,2013-11-03T08:30:00Z,29.6350,-93.6417,2.0,26.3277,11111222 
TABS,ioos:station:wmo:42051:1,2013-11-03T09:00:00Z,29.6350,-93.6417,2.0,25.9985,11111222 
TABS,ioos:station:wmo:42051:1,2013-11-03T09:30:00Z,29.6350,-93.6417,2.0,25.9894,11111222 
TABS,ioos:station:wmo:42051:1,2013-11-03T10:00:00Z,29.6350,-93.6417,2.0,26.1704,11111222 
TABS,ioos:station:wmo:42051:1,2013-11-03T10:30:00Z,29.6350,-93.6417,2.0,26.3923,11111222 
TABS,ioos:station:wmo:42051:1,2013-11-03T11:00:00Z,29.6350,-93.6417,2.0,26.3859,11111222 
TABS,ioos:station:wmo:42051:1,2013-11-03T11:30:00Z,29.6350,-93.6417,2.0,26.4259,11111222 
TABS,ioos:station:wmo:42051:1,2013-11-03T12:00:00Z,29.6350,-93.6417,2.0,26.5689,11111222 
TABS,ioos:station:wmo:42051:1,2013-11-03T12:30:00Z,29.6350,-93.6417,2.0,26.5147,11111222 
TABS,ioos:station:wmo:42051:1,2013-11-03T13:00:00Z,29.6350,-93.6417,2.0,26.5398,11111222 
TABS,ioos:station:wmo:42051:1,2013-11-03T13:30:00Z,29.6350,-93.6417,2.0,26.5793,11111222 
TABS,ioos:station:wmo:42051:1,2013-11-03T14:00:00Z,29.6350,-93.6417,2.0,26.6832,11111222 
TABS,ioos:station:wmo:42051:1,2013-11-03T14:30:00Z,29.6350,-93.6417,2.0,26.5447,11111222 
TABS,ioos:station:wmo:42051:1,2013-11-03T15:00:00Z,29.6350,-93.6417,2.0,26.5251,11111222 
TABS,ioos:station:wmo:42051:1,2013-11-03T15:30:00Z,29.6350,-93.6417,2.0,26.6352,11111222 
TABS,ioos:station:wmo:42051:1,2013-11-03T16:00:00Z,29.6350,-93.6417,2.0,26.8105,11111222 
TABS,ioos:station:wmo:42051:1,2013-11-03T16:30:00Z,29.6350,-93.6417,2.0,26.8157,11111222 
TABS,ioos:station:wmo:42051:1,2013-11-03T17:00:00Z,29.6350,-93.6417,2.0,26.2841,11111222 
TABS,ioos:station:wmo:42051:1,2013-11-03T17:30:00Z,29.6350,-93.6417,2.0,26.1901,11111222 
TABS,ioos:station:wmo:42051:1,2013-11-03T18:00:00Z,29.6350,-93.6417,2.0,26.2116,11111222 
TABS,ioos:station:wmo:42051:1,2013-11-03T18:30:00Z,29.6350,-93.6417,2.0,26.3169,11111222 
TABS,ioos:station:wmo:42051:1,2013-11-03T19:00:00Z,29.6350,-93.6417,2.0,26.4022,11111222 
TABS,ioos:station:wmo:42051:1,2013-11-03T19:30:00Z,29.6350,-93.6417,2.0,26.5051,11111222 
TABS,ioos:station:wmo:42051:1,2013-11-03T20:00:00Z,29.6350,-93.6417,2.0,26.558,11111222 
TABS,ioos:station:wmo:42051:1,2013-11-03T20:30:00Z,29.6350,-93.6417,2.0,26.5083,11111222 
TABS,ioos:station:wmo:42051:1,2013-11-03T21:00:00Z,29.6350,-93.6417,2.0,26.5067,11111222 
TABS,ioos:station:wmo:42051:1,2013-11-03T21:30:00Z,29.6350,-93.6417,2.0,26.4954,11111222 
TABS,ioos:station:wmo:42051:1,2013-11-03T22:00:00Z,29.6350,-93.6417,2.0,26.384,11111222 
TABS,ioos:station:wmo:42051:1,2013-11-03T22:30:00Z,29.6350,-93.6417,2.0,26.3536,11111222 
TABS,ioos:station:wmo:42051:1,2013-11-03T23:00:00Z,29.6350,-93.6417,2.0,26.3807,11111222 
TABS,ioos:station:wmo:42051:1,2013-11-03T23:30:00Z,29.6350,-93.6417,2.0,26.4396,11111222 
TABS,ioos:station:wmo:42051:1,2013-11-04T00:00:00Z,29.6350,-93.6417,2.0,26.4485,11111222 
TABS,ioos:station:wmo:42051:1,2013-11-04T00:30:00Z,29.6350,-93.6417,2.0,26.4852,11111222 
TABS,ioos:station:wmo:42051:1,2013-11-04T01:00:00Z,29.6350,-93.6417,2.0,26.36,11111222 
TABS,ioos:station:wmo:42051:1,2013-11-04T01:30:00Z,29.6350,-93.6417,2.0,26.3499,11111222 
TABS,ioos:station:wmo:42051:1,2013-11-04T02:00:00Z,29.6350,-93.6417,2.0,26.3111,11111222 
TABS,ioos:station:wmo:42051:1,2013-11-04T02:30:00Z,29.6350,-93.6417,2.0,26.3505,11111222 
TABS,ioos:station:wmo:42051:1,2013-11-04T03:00:00Z,29.6350,-93.6417,2.0,26.5207,11111222 
TABS,ioos:station:wmo:42051:1,2013-11-04T03:30:00Z,29.6350,-93.6417,2.0,26.4068,11111222 
TABS,ioos:station:wmo:42051:1,2013-11-04T04:00:00Z,29.6350,-93.6417,2.0,26.3726,11111222 
TABS,ioos:station:wmo:42051:1,2013-11-04T04:30:00Z,29.6350,-93.6417,2.0,26.3659,11111222 
TABS,ioos:station:wmo:42051:1,2013-11-04T05:00:00Z,29.6350,-93.6417,2.0,26.3935,11111222 
TABS,ioos:station:wmo:42051:1,2013-11-04T05:30:00Z,29.6350,-93.6417,2.0,26.5648,11111222 
TABS,ioos:station:wmo:42051:1,2013-11-04T06:00:00Z,29.6350,-93.6417,2.0,26.6529,11111222 
TABS,ioos:station:wmo:42051:1,2013-11-04T06:30:00Z,29.6350,-93.6417,2.0,26.7907,11111222 
TABS,ioos:station:wmo:42051:1,2013-11-04T07:00:00Z,29.6350,-93.6417,2.0,26.9474,11111222 
TABS,ioos:station:wmo:42051:1,2013-11-04T07:30:00Z,29.6350,-93.6417,2.0,27.0364,11111222 
TABS,ioos:station:wmo:42051:1,2013-11-04T08:00:00Z,29.6350,-93.6417,2.0,27.2589,11111222 
TABS,ioos:station:wmo:42051:1,2013-11-04T08:30:00Z,29.6350,-93.6417,2.0,27.3885,11111222 
TABS,ioos:station:wmo:42051:1,2013-11-04T09:00:00Z,29.6350,-93.6417,2.0,27.3877,11111222 
TABS,ioos:station:wmo:42051:1,2013-11-04T09:30:00Z,29.6350,-93.6417,2.0,27.4186,11111222 
TABS,ioos:station:wmo:42051:1,2013-11-04T10:00:00Z,29.6350,-93.6417,2.0,27.4124,11111222 
TABS,ioos:station:wmo:42051:1,2013-11-04T10:30:00Z,29.6350,-93.6417,2.0,27.4551,11111222 
TABS,ioos:station:wmo:42051:1,2013-11-04T11:00:00Z,29.6350,-93.6417,2.0,27.5226,11111222 
TABS,ioos:station:wmo:42051:1,2013-11-04T11:30:00Z,29.6350,-93.6417,2.0,27.6157,11111222 
TABS,ioos:station:wmo:42051:1,2013-11-04T12:00:00Z,29.6350,-93.6417,2.0,27.5561,11111222 
TABS,ioos:station:wmo:42051:1,2013-11-04T12:30:00Z,29.6350,-93.6417,2.0,27.5736,11111222 
TABS,ioos:station:wmo:42051:1,2013-11-04T13:00:00Z,29.6350,-93.6417,2.0,27.5845,11111222 
TABS,ioos:station:wmo:42051:1,2013-11-04T13:30:00Z,29.6350,-93.6417,2.0,27.5701,11111222 
TABS,ioos:station:wmo:42051:1,2013-11-04T14:00:00Z,29.6350,-93.6417,2.0,27.7719,11111222 
TABS,ioos:station:wmo:42051:1,2013-11-04T14:30:00Z,29.6350,-93.6417,2.0,27.9076,11111222 
TABS,ioos:station:wmo:42051:1,2013-11-04T15:00:00Z,29.6350,-93.6417,2.0,27.875,11111222 
TABS,ioos:station:wmo:42051:1,2013-11-04T15:30:00Z,29.6350,-93.6417,2.0,27.8198,11111222 
TABS,ioos:station:wmo:42051:1,2013-11-04T16:00:00Z,29.6350,-93.6417,2.0,27.7689,11111222 
TABS,ioos:station:wmo:42051:1,2013-11-04T16:30:00Z,29.6350,-93.6417,2.0,27.7665,11111222 
TABS,ioos:station:wmo:42051:1,2013-11-04T17:00:00Z,29.6350,-93.6417,2.0,27.7966,11111222 
TABS,ioos:station:wmo:42051:1,2013-11-04T17:30:00Z,29.6350,-93.6417,2.0,27.7533,11111222 
TABS,ioos:station:wmo:42051:1,2013-11-04T18:00:00Z,29.6350,-93.6417,2.0,27.7561,11111222 
TABS,ioos:station:wmo:42051:1,2013-11-04T18:30:00Z,29.6350,-93.6417,2.0,27.7171,11111222 
TABS,ioos:station:wmo:42051:1,2013-11-04T19:00:00Z,29.6350,-93.6417,2.0,27.6455,11111222 
TABS,ioos:station:wmo:42051:1,2013-11-04T19:30:00Z,29.6350,-93.6417,2.0,27.5982,11111222 
TABS,ioos:station:wmo:42051:1,2013-11-04T20:00:00Z,29.6350,-93.6417,2.0,27.5345,11111222 
TABS,ioos:station:wmo:42051:1,2013-11-04T20:30:00Z,29.6350,-93.6417,2.0,27.4979,11111222 
TABS,ioos:station:wmo:42051:1,2013-11-04T21:00:00Z,29.6350,-93.6417,2.0,27.5447,11111222 
TABS,ioos:station:wmo:42051:1,2013-11-04T21:30:00Z,29.6350,-93.6417,2.0,27.5292,11111222 
TABS,ioos:station:wmo:42051:1,2013-11-04T22:00:00Z,29.6350,-93.6417,2.0,27.5288,11111222 
TABS,ioos:station:wmo:42051:1,2013-11-04T22:30:00Z,29.6350,-93.6417,2.0,27.5589,11111222 
TABS,ioos:station:wmo:42051:1,2013-11-04T23:00:00Z,29.6350,-93.6417,2.0,27.6125,11111222 
TABS,ioos:station:wmo:42051:1,2013-11-04T23:30:00Z,29.6350,-93.6417,2.0,27.6476,11111222 
TABS,ioos:station:wmo:42051:1,2013-11-05T00:00:00Z,29.6350,-93.6417,2.0,27.5885,11111222 
TABS,ioos:station:wmo:42051:1,2013-11-05T00:30:00Z,29.6350,-93.6417,2.0,27.5471,11111222 
TABS,ioos:station:wmo:42051:1,2013-11-05T01:00:00Z,29.6350,-93.6417,2.0,27.5619,11111222 
TABS,ioos:station:wmo:42051:1,2013-11-05T01:30:00Z,29.6350,-93.6417,2.0,27.646,11111222 
TABS,ioos:station:wmo:42051:1,2013-11-05T02:00:00Z,29.6350,-93.6417,2.0,27.6403,11111222 
TABS,ioos:station:wmo:42051:1,2013-11-05T02:30:00Z,29.6350,-93.6417,2.0,27.6329,11111222 
TABS,ioos:station:wmo:42051:1,2013-11-05T03:00:00Z,29.6350,-93.6417,2.0,27.7069,11111222 
TABS,ioos:station:wmo:42051:1,2013-11-05T03:30:00Z,29.6350,-93.6417,2.0,27.7503,11111222 
TABS,ioos:station:wmo:42051:1,2013-11-05T04:00:00Z,29.6350,-93.6417,2.0,27.7917,11111222 
TABS,ioos:station:wmo:42051:1,2013-11-05T04:30:00Z,29.6350,-93.6417,2.0,27.7954,11111222 
TABS,ioos:station:wmo:42051:1,2013-11-05T05:00:00Z,29.6350,-93.6417,2.0,27.7085,11111222 
TABS,ioos:station:wmo:42051:1,2013-11-05T05:30:00Z,29.6350,-93.6417,2.0,27.6905,11111222 
TABS,ioos:station:wmo:42051:1,2013-11-05T06:00:00Z,29.6350,-93.6417,2.0,27.7712,11111222 
TABS,ioos:station:wmo:42051:1,2013-11-05T06:30:00Z,29.6350,-93.6417,2.0,27.9258,11111222 
TABS,ioos:station:wmo:42051:1,2013-11-05T07:00:00Z,29.6350,-93.6417,2.0,27.9944,11111222 
TABS,ioos:station:wmo:42051:1,2013-11-05T07:30:00Z,29.6350,-93.6417,2.0,28.0006,11111222 
TABS,ioos:station:wmo:42051:1,2013-11-05T08:00:00Z,29.6350,-93.6417,2.0,27.9749,11111222 
TABS,ioos:station:wmo:42051:1,2013-11-05T08:30:00Z,29.6350,-93.6417,2.0,27.9306,11111222 
TABS,ioos:station:wmo:42051:1,2013-11-05T09:00:00Z,29.6350,-93.6417,2.0,27.9147,11111222 
TABS,ioos:station:wmo:42051:1,2013-11-05T09:30:00Z,29.6350,-93.6417,2.0,27.9768,11111222 
TABS,ioos:station:wmo:42051:1,2013-11-05T10:00:00Z,29.6350,-93.6417,2.0,28.043,11111222 
TABS,ioos:station:wmo:42051:1,2013-11-05T10:30:00Z,29.6350,-93.6417,2.0,27.9723,11111222 
TABS,ioos:station:wmo:42051:1,2013-11-05T11:00:00Z,29.6350,-93.6417,2.0,27.9603,11111222 
TABS,ioos:station:wmo:42051:1,2013-11-05T11:30:00Z,29.6350,-93.6417,2.0,27.9229,11111222 
TABS,ioos:station:wmo:42051:1,2013-11-05T12:00:00Z,29.6350,-93.6417,2.0,27.9389,11111222 
TABS,ioos:station:wmo:42051:1,2013-11-05T12:30:00Z,29.6350,-93.6417,2.0,27.9568,11111222 
TABS,ioos:station:wmo:42051:1,2013-11-05T13:00:00Z,29.6350,-93.6417,2.0,27.9378,11111222 
TABS,ioos:station:wmo:42051:1,2013-11-05T13:30:00Z,29.6350,-93.6417,2.0,27.9334,11111222 
TABS,ioos:station:wmo:42051:1,2013-11-05T14:00:00Z,29.6350,-93.6417,2.0,27.9154,11111222 
TABS,ioos:station:wmo:42051:1,2013-11-05T14:30:00Z,29.6350,-93.6417,2.0,27.9358,11111222 
TABS,ioos:station:wmo:42051:1,2013-11-05T15:00:00Z,29.6350,-93.6417,2.0,27.9914,11111222 
TABS,ioos:station:wmo:42051:1,2013-11-05T15:30:00Z,29.6350,-93.6417,2.0,27.9995,11111222 
TABS,ioos:station:wmo:42051:1,2013-11-05T16:00:00Z,29.6350,-93.6417,2.0,28.0097,11111222 
TABS,ioos:station:wmo:42051:1,2013-11-05T16:30:00Z,29.6350,-93.6417,2.0,28.0061,11111222 
TABS,ioos:station:wmo:42051:1,2013-11-05T17:00:00Z,29.6350,-93.6417,2.0,28.0103,11111222 
TABS,ioos:station:wmo:42051:1,2013-11-05T17:30:00Z,29.6350,-93.6417,2.0,28.0595,11111222 
TABS,ioos:station:wmo:42051:1,2013-11-05T18:00:00Z,29.6350,-93.6417,2.0,28.0733,11111222 
TABS,ioos:station:wmo:42051:1,2013-11-05T18:30:00Z,29.6350,-93.6417,2.0,28.0931,11111222 
TABS,ioos:station:wmo:42051:1,2013-11-05T19:00:00Z,29.6350,-93.6417,2.0,28.1131,11111222 
TABS,ioos:station:wmo:42051:1,2013-11-05T19:30:00Z,29.6350,-93.6417,2.0,28.1505,11111222 
TABS,ioos:station:wmo:42051:1,2013-11-05T20:00:00Z,29.6350,-93.6417,2.0,28.1964,11111222 
TABS,ioos:station:wmo:42051:1,2013-11-05T20:30:00Z,29.6350,-93.6417,2.0,28.2451,11111222 
TABS,ioos:station:wmo:42051:1,2013-11-05T21:00:00Z,29.6350,-93.6417,2.0,28.1483,11111222 
TABS,ioos:station:wmo:42051:1,2013-11-05T21:30:00Z,29.6350,-93.6417,2.0,28.0936,11111222 
TABS,ioos:station:wmo:42051:1,2013-11-05T22:00:00Z,29.6350,-93.6417,2.0,28.1027,11111222 
TABS,ioos:station:wmo:42051:1,2013-11-05T22:30:00Z,29.6350,-93.6417,2.0,28.1519,11111222 
TABS,ioos:station:wmo:42051:1,2013-11-05T23:00:00Z,29.6350,-93.6417,2.0,28.4124,11111222 
TABS,ioos:station:wmo:42051:1,2013-11-05T23:30:00Z,29.6350,-93.6417,2.0,28.4639,11111222 
TABS,ioos:station:wmo:42051:1,2013-11-06T00:00:00Z,29.6350,-93.6417,2.0,28.9039,11111222 
TABS,ioos:station:wmo:42051:1,2013-11-06T00:30:00Z,29.6350,-93.6417,2.0,29.2543,11111222 
TABS,ioos:station:wmo:42051:1,2013-11-06T01:00:00Z,29.6350,-93.6417,2.0,29.3504,11111222 
TABS,ioos:station:wmo:42051:1,2013-11-06T01:30:00Z,29.6350,-93.6417,2.0,29.4375,11111222 
TABS,ioos:station:wmo:42051:1,2013-11-06T02:00:00Z,29.6350,-93.6417,2.0,29.481,11111222 
TABS,ioos:station:wmo:42051:1,2013-11-06T02:30:00Z,29.6350,-93.6417,2.0,29.3287,11111222 
TABS,ioos:station:wmo:42051:1,2013-11-06T03:00:00Z,29.6350,-93.6417,2.0,29.5396,11111222 
TABS,ioos:station:wmo:42051:1,2013-11-06T03:30:00Z,29.6350,-93.6417,2.0,29.5698,11111222 
TABS,ioos:station:wmo:42051:1,2013-11-06T04:00:00Z,29.6350,-93.6417,2.0,29.6105,11111222 
TABS,ioos:station:wmo:42051:1,2013-11-06T04:30:00Z,29.6350,-93.6417,2.0,29.5948,11111222 
TABS,ioos:station:wmo:42051:1,2013-11-06T05:00:00Z,29.6350,-93.6417,2.0,29.6736,11111222 
TABS,ioos:station:wmo:42051:1,2013-11-06T05:30:00Z,29.6350,-93.6417,2.0,29.7751,11111222 
TABS,ioos:station:wmo:42051:1,2013-11-06T06:00:00Z,29.6350,-93.6417,2.0,29.9276,11111222 
TABS,ioos:station:wmo:42051:1,2013-11-06T06:30:00Z,29.6350,-93.6417,2.0,29.8514,11111222 
TABS,ioos:station:wmo:42051:1,2013-11-06T07:00:00Z,29.6350,-93.6417,2.0,29.7926,11111222 
TABS,ioos:station:wmo:42051:1,2013-11-06T07:30:00Z,29.6350,-93.6417,2.0,29.7406,11111222 
TABS,ioos:station:wmo:42051:1,2013-11-06T08:00:00Z,29.6350,-93.6417,2.0,29.6586,11111222 
TABS,ioos:station:wmo:42051:1,2013-11-06T08:30:00Z,29.6350,-93.6417,2.0,29.528,11111222 
TABS,ioos:station:wmo:42051:1,2013-11-06T09:00:00Z,29.6350,-93.6417,2.0,29.4321,11111222 
TABS,ioos:station:wmo:42051:1,2013-11-06T09:30:00Z,29.6350,-93.6417,2.0,29.3315,11111222 
TABS,ioos:station:wmo:42051:1,2013-11-06T10:00:00Z,29.6350,-93.6417,2.0,29.1818,11111222 
TABS,ioos:station:wmo:42051:1,2013-11-06T10:30:00Z,29.6350,-93.6417,2.0,29.1565,11111222 
TABS,ioos:station:wmo:42051:1,2013-11-06T11:00:00Z,29.6350,-93.6417,2.0,29.0541,11111222 
TABS,ioos:station:wmo:42051:1,2013-11-06T11:30:00Z,29.6350,-93.6417,2.0,29.0194,11111222 
TABS,ioos:station:wmo:42051:1,2013-11-06T12:00:00Z,29.6350,-93.6417,2.0,28.9606,11111222 